sat.trackr.live / text

‹ back to catalog

STARLINK-3928

NORAD 52606 · 2022-052J

PAYLOAD ACTIVE UNKNOWN

§ Identity

Operator
Country
US
Launch date
2022-05-14
Launch site
AFETR
Launch vehicle
Mass (kg)
RCS (m²)

Purposes: comms

External: N2YO · Heavens-Above · Gunter

§ Orbital elements

Epoch: 2026-09-20T04:28:28.752096Z

Period
94.89 min
Inclination
53.1610°
Eccentricity
0.0001440
Mean motion
15.17583444 rev/d
Perigee alt
512.2 km
Apogee alt
514.1 km
Semi-major
6,891.3 km
B*
-1.4874e-5
RAAN
121.7167°
Arg perigee
81.3271°
Mean anomaly
278.7887°
Rev number
24,027

§ Raw data

STARLINK-39281 52606U 22052J   26263.18644389 -.00000617  00000+0 -14874-4 0  99952 52606  53.1610 121.7167 0001440  81.3271 278.7887 15.17583444240277

JSON: /api/v1/satellites/52606 · /tle

For live sub-satellite position, see the globe view (requires WebGL).

§ Visibility from observer

Set your observer location to see the next 7 days of passes ≥ 10°. The values pass through the URL so the page stays shareable.

No JS? Fill the form by hand. The geolocation button needs JavaScript.